CAPE
0 0 0 0 0 0 0 0 0 0 0 0 0 0 0 0 0 0 0 0 0 0 0 0 0 0 0 0 0 0 0 0 0 0 0 0 0 0 0 0 0 0 1 3
0 0 0 0 0 0 0 0 0 0 0 0 0 0 0 0 0 0 0 0 0 0 0 0 0 0 0 0 0 0 0 0 0 0 0 0 0 0 0 0 0 0 1 3
0 0 0 0 0 0 0 0 0 0 0 0 0 0 0 0 0 0 0 0 0 0 0 0 0 0 0 0 0 0 0 0 0 0 0 0 0 0 0 0 0 0 1 3
0 0 0 0 0 0 0 0 0 0 0 0 0 0 0 0 0 0 0 0 0 0 0 0 0 0 0 0 0 0 0 0 0 0 0 0 0 0 0 0 0 0 0 0
0 0 0 0 0 0 0 0 0 0 0 0 0 0 0 0 0 0 0 0 0 0 0 0 0 0 0 0 0 0 0 0 0 0 0 0 0 0 0 0 0 0 0 0
0 0 0 0 0 0 0 0 0 0 0 0 0 0 0 0 0 0 0 0 0 0 0 0 0 0 0 0 0 0 0 0 0 0 0 0 0 0 0 0 0 0 0 0
0 0 0 0 0 0 0 0 0 0 0 0 0 0 0 0 0 0 0 0 0 0 0 0 0 0 0 0 0 0 0 0 0 0 0 0 0 0 0 0 0 1 1 1
13 5 0 0 0 0 0 0 2 0 4 4 0 0 0 0 0 0 0 0 0 0 0 0 0 0 0 0 0 0 0 0 0 0 0 0 0 0 0 2 6 3 4 4
78 48 0 0 0 0 0 0 0 14 7 1 0 0 0 0 0 0 0 0 0 0 0 0 0 0 0 0 0 0 0 0 0 0 0 0 0 2 3 7 11 6 7 4
96 50 14 15 0 0 4 0 0 2 7 13 0 1 0 0 0 0 0 0 0 0 0 0 0 0 0 0 0 0 0 0 0 0 0 0 0 4 6 9 13 12 8 9
50 81 6 0 4 67 1 0 0 1 6 58 21 2 0 0 0 0 0 0 0 0 0 0 0 0 0 0 0 0 0 0 0 0 0 2 4 6 7 8 12 14 12 11
56 93 45 22 54 4 0 11 56 92 4 25 34 5 0 0 0 0 0 0 0 0 0 0 0 0 0 0 0 0 0 0 0 0 1 4 6 8 8 9 12 16 13 11
53 76 40 7 55 104 25 49 34 2 0 0 65 1 0 0 0 0 0 0 0 0 0 0 0 1 0 0 0 0 0 0 0 0 1 4 8 9 11 11 13 13 14 12
4 64 22 18 3 30 25 7 1 4 101 31 32 11 0 1 0 0 0 0 0 0 0 0 1 3 3 0 0 0 0 0 0 0 2 6 8 8 9 9 9 16 15 12
2 12 20 2 1 8 3 0 0 3 3 46 0 16 0 0 19 0 0 0 0 0 0 0 2 6 16 4 1 0 0 0 0 0 3 7 10 8 8 8 8 13 12 12
63 70 15 0 0 0 0 0 0 1 0 0 0 2 0 0 0 0 0 0 0 0 0 0 0 0 3 0 0 0 0 0 2 3 3 4 9 9 6 9 10 12 11 12
31 23 27 41 24 29 70 0 0 0 0 0 59 2 10 3 1 1 0 0 0 0 0 0 0 1 0 0 0 0 0 1 1 4 3 4 7 7 8 8 8 10 12 13
26 25 43 29 37 53 1 0 0 3 35 145 161 67 69 25 1 0 0 0 0 0 0 1 1 1 0 0 0 0 0 0 1 3 3 6 8 7 7 9 9 8 9 10
43 58 75 78 32 17 1 0 0 102 43 32 151 132 109 0 0 0 0 0 0 0 5 2 0 0 0 0 0 0 0 0 2 3 6 7 7 6 6 10 12 10 8 10
0 65 174 68 50 20 0 25 18 111 88 143 111 56 72 0 16 4 0 0 3 3 0 0 0 0 0 0 0 0 0 0 3 5 6 6 6 7 7 8 10 8 12 8
87 90 71 106 91 42 0 0 7 69 11 103 37 36 8 0 1 0 1 0 0 0 0 0 0 0 0 0 0 0 0 1 3 5 6 6 7 8 8 7 8 10 12 13
67 99 156 112 131 54 0 1 67 52 18 28 1 0 0 0 0 0 0 0 0 0 0 0 0 0 0 0 0 0 0 0 3 3 3 5 6 6 5 8 10 8 9 12
171 90 131 122 104 123 131 211 118 2 11 0 0 0 0 0 0 0 0 0 0 0 0 0 0 0 0 0 0 0 0 0 1 1 1 2 3 5 10 12 15 12 12 18
123 155 214 131 89 154 155 0 0 0 0 0 0 0 0 0 0 0 0 0 0 0 0 0 0 0 0 1 1 0 1 0 0 0 0 1 3 3 8 13 12 14 18 19
181 208 166 108 121 62 1 0 0 0 0 0 0 0 0 0 0 0 0 0 0 0 0 0 0 0 1 1 0 0 0 0 0 0 0 0 2 4 6 15 18 19 15 21
186 291 300 275 133 157 154 0 0 0 0 0 0 0 0 0 0 0 0 0 0 0 0 0 0 0 0 1 0 0 0 0 0 0 0 2 6 7 7 10 17 2 5 4
CIN
-0 -0 -0 -0 -0 -0 -0 -0 -0 -0 -0 -0 -0 -0 -0 -0 -0 -0 -0 -0 -0 -0 -0 -0 -0 -0 -0 -0 -0 -0 -0 -0 -0 -0 -0 -0 -0 -0 -0 -0 -0 -0 -0 -0
-0 -0 -0 -0 -0 -0 -0 -0 -0 -0 -0 -0 -0 -0 -0 -0 -0 -0 -0 -0 -0 -0 -0 -0 -0 -0 -0 -0 -0 -0 -0 -0 -0 -0 -0 -0 -0 -0 -0 -0 -0 -0 -0 -0
-0 -0 -0 -0 -0 -0 -0 -0 -0 -0 -0 -0 -0 -0 -0 -0 -0 -0 -0 -0 -0 -0 -0 -0 -0 -0 -0 -0 -0 -0 -0 -0 -0 -0 -0 -0 -0 -0 -0 -0 -0 -0 -0 -0
-0 -0 -0 -0 -0 -0 -0 -0 -0 -0 -0 -0 -0 -0 -0 -0 -0 -0 -0 -0 -0 -0 -0 -0 -0 -0 -0 -0 -0 -0 -0 -0 -0 -0 -0 -0 -0 -0 -0 -0 -0 -0 -0 -0
-0 -0 -0 -0 -0 -0 -0 -0 -0 -0 -0 -0 -0 -0 -0 -0 -0 -0 -0 -0 -0 -0 -0 -0 -0 -0 -0 -0 -0 -0 -0 -0 -0 -0 -0 -0 -0 -0 -0 -0 -0 -0 -0 -0
-0 -0 -0 -0 -0 -0 -0 -0 -0 -0 -0 -0 -0 -0 -0 -0 -0 -0 -0 -0 -0 -0 -0 -0 -0 -0 -0 -0 -0 -0 -0 -0 -0 -0 -0 -0 -0 -0 -0 -0 -0 -0 -0 -0
-0 -0 -0 -0 -0 -0 -0 -0 -0 -0 -0 -0 -0 -0 -0 -0 -0 -0 -0 -0 -0 -0 -0 -0 -0 -0 -0 -0 -0 -0 -0 -0 -0 -0 -0 -0 -0 -0 -0 -0 -0 -0 -0 -0
-22 -3 -0 -0 -0 -0 -0 -0 -0 -0 -0 -0 -0 -0 -0 -0 -0 -0 -0 -0 -0 -0 -0 -0 -0 -0 -0 -0 -0 -0 -0 -0 -0 -0 -0 -0 -0 -0 -0 -0 -0 -0 -0 -0
-2 -6 -9 -0 -0 -0 -0 -0 -0 -0 -0 -0 -0 -0 -0 -0 -0 -0 -0 -0 -0 -0 -0 -0 -0 -0 -0 -0 -0 -0 -0 -0 -0 -0 -0 -0 -0 -0 -0 -0 -0 -0 -0 -0
-7 -6 -7 -2 -0 -0 -18 -0 -0 -0 -0 -1 -0 -0 -0 -0 -0 -0 -0 -0 -0 -0 -0 -0 -0 -0 -0 -0 -0 -0 -0 -0 -0 -0 -0 -0 -0 -0 -0 -0 -0 -0 -0 -0
-34 -10 -1 -0 -2 -0 -1 -0 -0 -3 -2 -0 -0 -0 -0 -0 -0 -0 -0 -0 -0 -0 -0 -0 -0 -0 -0 -0 -0 -0 -0 -0 -0 -0 -0 -0 -0 -0 -0 -0 -0 -0 -0 -0
-39 -5 -3 -0 -1 -12 -1 -5 -0 -0 -3 -0 -0 -0 -0 -0 -0 -0 -0 -0 -0 -0 -0 -0 -0 -0 -0 -0 -0 -0 -0 -0 -0 -0 -0 -0 -0 -0 -0 -0 -0 -0 -0 -0
-29 -3 -1 -0 -0 -1 -20 -1 -1 -1 -0 -0 -0 -0 -0 -0 -0 -0 -0 -0 -0 -0 -0 -0 -0 -0 -0 -0 -0 -0 -0 -0 -0 -0 -0 -0 -0 -0 -0 -0 -0 -0 -0 -0
-109 -6 -6 -1 -0 -2 -2 -19 -0 -1 -0 -0 -0 -0 -0 -0 -0 -0 -0 -0 -0 -0 -0 -0 -0 -0 -0 -0 -0 -0 -0 -0 -0 -0 -0 -0 -0 -0 -0 -0 -0 -0 -0 -0
-43 -20 -9 -6 -5 -1 -0 -0 -0 -4 -0 -0 -0 -0 -0 -0 -4 -0 -0 -0 -0 -0 -0 -0 -0 -0 -0 -0 -0 -0 -0 -0 -0 -0 -0 -0 -0 -0 -0 -0 -0 -0 -0 -0
-0 -0 -15 -0 -0 -0 -0 -0 -0 -0 -0 -0 -0 -0 -0 -0 -0 -0 -0 -0 -0 -0 -0 -0 -0 -0 -0 -0 -0 -0 -0 -0 -0 -0 -0 -0 -0 -0 -0 -0 -0 -0 -0 -0
-0 -0 -6 -2 -6 -5 -3 -0 -0 -31 -0 -0 -0 -13 -24 -34 -1 -11 -2 -0 -0 -0 -0 -0 -0 -0 -0 -0 -0 -0 -0 -0 -0 -0 -0 -0 -0 -0 -0 -0 -0 -0 -0 -0
-0 -0 -0 -0 -6 -3 -2 -0 -14 -65 -51 -5 -2 -49 -29 -23 -13 -0 -0 -0 -0 -0 -0 -0 -0 -0 -0 -0 -0 -0 -0 -0 -0 -0 -0 -0 -0 -0 -0 -0 -0 -0 -0 -0
-0 -0 -0 -0 -0 -0 -0 -0 -0 -1 -38 -6 -9 -17 -15 -0 -0 -0 -0 -0 -0 -0 -0 -0 -0 -0 -0 -0 -0 -0 -0 -0 -0 -0 -0 -0 -0 -0 -0 -0 -0 -0 -0 -0
-1 -0 -0 -0 -0 -0 -0 -0 -10 -5 -0 -0 -15 -25 -57 -0 -54 -6 -0 -0 -0 -0 -0 -0 -0 -0 -0 -0 -0 -0 -0 -0 -0 -0 -0 -0 -0 -0 -0 -0 -0 -0 -0 -0
-0 -0 -0 -0 -0 -0 -0 -0 -4 -0 -9 -48 -90 -72 -107 -0 -0 -0 -0 -0 -0 -0 -0 -0 -0 -0 -0 -0 -0 -0 -0 -0 -0 -0 -0 -0 -0 -0 -0 -0 -0 -0 -0 -0
-0 -0 -0 -0 -0 -0 -0 -1 -0 -13 -85 -88 -62 -0 -0 -0 -0 -0 -0 -0 -0 -0 -0 -0 -0 -0 -0 -0 -0 -0 -0 -0 -0 -0 -0 -0 -0 -0 -0 -0 -0 -0 -0 -0
-0 -0 -0 -1 -1 -1 -37 -13 -37 -9 -87 -0 -0 -0 -0 -0 -0 -0 -0 -0 -0 -0 -0 -0 -0 -0 -0 -0 -0 -0 -0 -0 -0 -0 -0 -0 -0 -0 -0 -0 -0 -0 -0 -0
-0 -1 -1 -0 -0 -0 -4 -0 -0 -0 -0 -0 -0 -0 -0 -0 -0 -0 -0 -0 -0 -0 -0 -0 -0 -0 -0 -0 -0 -0 -0 -0 -0 -0 -0 -0 -0 -0 -0 -0 -0 -0 -0 -0
-0 -0 -4 -0 -0 -28 -7 -0 -0 -0 -0 -0 -0 -0 -0 -0 -0 -0 -0 -0 -0 -0 -0 -0 -0 -0 -0 -0 -0 -0 -0 -0 -0 -0 -0 -0 -0 -0 -0 -0 -0 -0 -0 -0
-0 -6 -0 -0 -1 -0 -0 -0 -0 -0 -0 -0 -0 -0 -0 -0 -0 -0 -0 -0 -0 -0 -0 -0 -0 -0 -0 -0 -0 -0 -0 -0 -0 -0 -0 -0 -0 -0 -0 -0 -0 -0 -0 -0
Wind_Speed
10 11 13 12 11 10 8 9 12 13 1 7 14 15 15 12 16 18 19 18 17 16 11 9 6 4 3 6 6 7 7 8 6 6 7 5 6 6 6 6 8 9 9 10
8 16 15 9 8 10 10 13 15 14 9 9 15 19 17 13 20 20 20 19 19 16 13 10 8 5 5 6 6 7 7 7 7 6 6 5 7 5 6 6 7 7 10 10
18 5 2 13 10 12 15 14 13 12 9 14 15 21 23 12 15 15 17 18 19 18 16 12 9 5 5 6 6 6 7 7 7 8 5 6 6 5 4 6 6 9 10 10
15 17 11 9 13 13 16 10 14 11 9 8 3 9 3 14 16 15 17 18 20 18 15 11 9 7 5 6 5 5 6 7 7 7 7 8 7 8 7 7 7 9 10 11
4 7 13 18 18 12 14 3 10 10 12 13 14 10 7 8 15 19 19 20 18 17 14 13 9 7 5 5 5 5 6 6 7 7 7 7 8 7 6 7 10 10 9 10
19 5 6 6 3 11 2 7 7 8 9 14 13 13 12 9 11 13 16 18 18 16 14 11 8 7 6 5 5 4 6 6 7 7 7 7 8 9 8 8 9 8 8 8
17 23 14 9 10 5 11 8 8 10 10 14 1 10 16 4 3 1 8 15 16 15 14 13 10 8 4 4 4 4 6 6 7 7 7 8 8 9 9 9 9 12 9 8
6 7 15 16 25 20 14 16 10 11 12 11 4 11 6 4 0 3 4 11 15 15 13 11 9 7 6 3 5 5 6 6 7 8 8 8 9 7 8 9 9 9 9 10
5 6 1 3 15 15 13 11 15 19 18 12 13 15 9 4 4 2 7 13 16 16 14 12 9 7 5 3 4 6 7 7 8 9 8 8 8 9 10 11 10 9 11 10
3 7 5 6 4 9 15 1 6 6 6 8 11 15 14 12 11 7 8 11 14 15 14 12 9 7 5 3 4 6 7 8 9 9 9 9 10 10 10 10 12 13 13 14
4 4 7 2 7 11 6 10 7 2 7 8 15 13 7 8 3 8 11 13 16 16 14 12 9 7 6 3 4 6 7 8 9 9 9 10 10 11 11 10 12 13 15 15
5 5 8 14 8 7 10 13 15 11 12 12 15 18 6 5 6 9 10 12 14 15 14 12 9 7 5 5 6 7 8 9 9 9 10 9 10 11 12 12 13 14 15 15
8 3 6 11 12 10 9 13 9 7 5 17 15 16 4 3 4 6 9 12 13 14 13 11 8 6 4 5 6 7 8 8 9 10 10 10 10 11 13 14 14 15 15 15
5 9 13 14 14 2 9 11 10 10 5 10 14 23 20 15 7 10 12 13 15 14 14 12 9 5 4 5 5 7 7 8 9 9 10 11 11 11 12 13 13 15 15 15
6 15 14 19 18 15 18 21 21 15 17 13 19 21 25 20 12 14 13 16 17 17 15 12 10 6 5 4 5 6 6 7 7 8 9 11 12 12 11 13 13 14 14 14
2 8 9 17 16 16 21 24 23 21 23 23 24 27 25 22 4 12 14 16 17 15 15 12 11 9 5 3 4 6 6 7 7 7 8 9 11 12 13 13 14 14 14 15
12 8 7 15 10 8 10 21 21 17 23 22 20 26 18 16 9 12 13 15 14 16 15 13 10 8 5 4 6 6 7 6 7 7 8 10 11 12 13 14 14 15 15 15
14 14 10 14 12 16 14 13 11 14 18 18 20 23 18 15 4 4 5 11 14 17 15 13 9 7 5 4 5 4 5 5 6 7 10 10 10 11 12 14 15 14 13 14
18 16 12 13 14 17 20 16 16 13 19 14 18 18 15 10 8 9 6 10 15 16 13 11 9 7 5 5 5 5 6 6 7 9 10 10 10 12 12 13 15 14 13 14
23 20 15 14 16 19 18 4 6 8 17 13 12 12 8 11 8 7 12 16 17 15 13 11 9 8 6 5 5 6 7 8 9 9 9 8 10 11 12 13 14 14 14 13
7 12 17 17 18 18 20 16 7 13 9 3 2 3 8 7 5 19 17 16 15 14 13 11 9 7 7 6 6 6 7 9 8 8 8 9 10 11 12 13 12 13 13 13
13 10 10 14 19 22 13 10 20 6 3 3 2 4 12 15 18 18 17 17 15 14 11 9 8 8 8 8 6 8 9 8 7 8 8 9 10 10 10 12 12 13 14 14
17 14 12 9 6 4 2 7 5 6 6 2 7 11 17 19 19 18 16 15 13 11 10 8 9 9 8 8 8 8 8 8 7 8 9 10 11 10 10 11 11 10 13 13
10 9 9 12 12 14 4 2 1 3 7 1 8 14 18 20 18 17 15 14 11 10 9 9 9 9 9 8 8 8 8 8 8 9 10 9 10 11 10 9 9 9 11 12
10 9 13 14 13 5 8 6 4 4 8 11 12 14 18 19 17 16 14 12 11 10 9 8 8 8 9 8 8 8 9 9 9 9 9 10 9 10 10 9 8 9 10 12
10 8 8 7 4 7 7 7 9 12 13 14 17 18 16 16 17 15 13 11 10 10 10 9 9 9 9 8 8 9 10 10 9 9 8 9 8 8 9 9 9 11 13 16
Wind_Direction
199 229 231 229 234 285 275 258 265 266 227 281 254 260 260 199 210 212 204 199 194 188 155 160 144 121 107 69 54 39 21 9 352 358 2 352 353 329 332 335 336 336 343 342
196 229 247 240 245 231 248 261 260 273 274 252 266 266 259 211 215 213 209 203 196 185 176 171 160 136 104 75 50 39 27 16 6 1 351 337 316 312 309 331 325 339 339 343
234 206 336 214 216 225 240 238 252 260 302 262 269 263 248 225 221 217 214 208 198 191 188 176 168 142 118 74 50 34 27 18 25 1 338 327 293 286 324 337 333 343 336 339
255 256 229 225 235 228 249 235 260 260 267 265 197 289 220 192 211 216 216 205 197 192 190 175 170 146 108 68 59 38 25 23 27 7 346 335 325 329 339 324 332 328 339 338
224 219 225 239 241 237 266 254 246 239 250 279 236 258 262 175 211 214 213 204 195 191 183 178 167 138 110 70 44 34 15 24 23 4 351 333 336 330 325 328 329 334 332 332
252 247 240 247 260 223 272 210 218 243 256 251 255 236 278 228 218 216 209 198 193 183 181 169 155 147 126 109 62 30 7 26 16 0 350 344 336 331 330 337 330 337 329 330
236 237 222 222 224 177 206 208 247 225 212 258 33 218 256 136 95 293 218 191 186 177 178 178 165 153 125 83 48 19 11 15 7 356 352 348 339 330 330 332 334 329 329 326
247 237 218 223 231 229 210 235 243 259 259 271 141 247 256 81 274 255 216 180 174 178 181 175 156 150 127 80 38 13 6 356 2 357 353 348 346 340 329 341 331 322 323 323
211 234 110 237 232 228 242 228 251 267 270 265 262 250 191 171 198 183 159 163 171 176 178 165 153 146 136 101 49 13 351 355 2 356 352 349 343 345 342 334 326 328 324 327
302 260 244 233 204 231 235 73 183 144 223 233 252 264 265 192 191 184 179 183 179 177 175 162 159 153 137 78 41 14 356 357 357 354 353 347 343 344 344 332 328 332 329 326
349 248 227 175 223 247 185 227 217 36 259 260 267 264 68 51 82 184 196 190 181 180 176 166 158 149 131 95 33 13 4 358 358 356 351 348 350 340 343 337 329 333 329 329
18 298 274 261 264 275 271 252 237 224 228 228 261 273 103 120 168 194 187 186 181 180 175 165 152 144 116 56 27 12 5 0 355 354 348 352 348 342 337 338 329 333 330 330
2 241 271 245 225 220 246 244 276 276 295 250 261 257 83 91 211 211 206 183 181 181 168 157 118 118 101 57 32 12 9 357 354 353 348 350 351 344 340 342 333 330 333 333
318 260 251 264 272 297 277 276 270 255 248 255 234 258 267 271 233 197 200 188 185 182 172 163 137 123 92 45 25 23 5 1 359 352 349 353 346 340 341 337 334 329 337 330
243 253 256 263 268 277 276 275 274 274 266 264 274 276 278 281 245 217 201 194 187 182 176 163 148 125 97 56 22 18 3 3 359 357 356 348 338 339 340 340 332 334 335 326
232 266 269 260 266 253 256 257 256 253 255 256 257 261 268 278 264 206 205 199 192 183 168 155 139 124 86 54 23 20 360 358 350 5 356 345 341 344 346 337 336 339 332 338
266 267 270 271 266 278 270 251 248 247 244 248 257 262 280 281 227 227 215 210 190 170 157 150 129 112 95 39 16 8 359 351 3 350 360 357 349 344 343 333 343 341 339 338
248 247 254 263 283 258 252 259 269 265 256 253 260 262 265 277 24 2 224 187 168 155 146 135 121 113 96 54 34 4 3 2 1 357 4 357 353 342 344 341 347 348 337 342
228 241 247 243 245 258 277 270 268 249 266 267 249 255 261 133 142 66 92 133 138 135 128 115 115 104 92 56 36 18 25 14 7 9 4 0 346 346 343 343 346 348 341 342
224 219 231 238 242 254 258 308 343 290 262 256 248 264 176 168 225 114 111 113 122 126 119 114 111 105 93 64 44 40 31 22 16 4 360 357 356 347 356 350 346 347 347 342
188 214 230 234 247 256 263 271 277 250 262 54 286 209 171 170 33 125 126 120 113 111 115 114 107 99 85 67 57 53 39 24 8 355 3 12 5 357 4 355 351 349 348 346
229 221 216 231 241 248 252 251 224 324 15 315 132 138 107 113 119 125 122 120 118 114 115 113 110 94 78 64 48 46 35 12 354 1 13 17 14 8 3 353 356 355 356 354
239 240 252 205 230 303 323 295 342 312 310 255 141 133 134 129 132 133 127 121 115 114 114 114 108 97 78 62 49 48 28 9 8 16 19 21 24 4 11 6 3 1 1 357
228 237 235 246 255 255 244 217 351 318 16 190 147 144 138 132 133 130 125 120 122 119 114 113 107 96 87 73 59 43 29 13 23 25 25 15 25 359 18 13 11 6 8 2
230 201 229 249 264 259 229 220 171 112 135 139 134 133 127 129 136 128 124 123 122 119 115 108 103 98 89 77 61 43 32 23 27 30 28 17 19 13 9 20 22 13 21 12
206 209 222 246 271 236 303 180 160 161 148 142 135 127 130 135 127 130 123 125 128 123 118 113 109 101 89 77 60 42 33 31 24 33 29 28 16 14 11 5 6 32 20 17